Location: Roland
(31.1349°N, 85.4372°W)
Time: 21:20:15
(UTC+00:00)

Tiros 1 - Pass Details

Date: 26 April 2021
Orbit: 630 x 664 km, 48.4° (Epoch: 05 May)

Event Time Altitude Azimuth Distance (km) Brightness Sun altitude
Rises 17:13:21 0° 321° (NW) 2,925 10.3 71.6°
Reaches altitude 10° 17:16:25 10° 342° (NNW) 2,011 9.6 71.8°
Maximum altitude 17:19:27 17° 23° (NNE) 1,592 9.2 72.0°
Drops below altitude 10° 17:22:29 10° 64° (ENE) 2,003 9.8 72.2°
Sets 17:25:32 0° 85° (E) 2,908 10.5 72.3°
